Weather History for KDKK - September, 2013

Change the Weather History Date:

Wednesday, September 11, 2013

  Actual Average Record
Temperature  
Mean Temperature 79 °F -  
Max Temperature 88 °F 74 °F 90 °F (1955)
Min Temperature 71 °F 56 °F 38 °F (1967)
Cooling Degree Days 14    
Growing Degree Days 29 (Base 50)    
Moisture  
Dew Point 70 °F    
Average Humidity 73    
Maximum Humidity 88    
Minimum Humidity 55    
Precipitation  
Precipitation 0.25 in - - ()
Sea Level Pressure  
Sea Level Pressure 30.01 in    
Wind  
Wind Speed 16 mph (SW)    
Max Wind Speed 23 mph    
Max Gust Speed 34 mph    
Visibility 8 miles    
Events Rain , Thunderstorm    
Averages and records for this station are not official NWS values.
T = Trace of Precipitation, MM = Missing Value Source: NWS Daily Summary

Daily Weather History Graph

Daily Weather History Graph

Search for Another Location

Airport or City:

Trip Planner

Search our weather history database for the weather conditions in past years. The results will help you decide how hot, cold, wet, or windy it might be!

Date:

Astronomy

Sep. 11, 2013 Rise Set
Actual Time 6:52 AM EDT 7:33 PM EDT
Civil Twilight 6:24 AM EDT 8:01 PM EDT
Nautical Twilight 5:50 AM EDT 8:35 PM EDT
Astronomical Twilight 5:16 AM EDT 9:10 PM EDT
Moon 1:27 PM EDT (9/11) 11:19 PM EDT (9/11)
Length of Visible Light 13h 37m
Length of Day
12h 40m
Waxing Crescent, 38% of the Moon is Illuminated
Sep 11
Waxing Crescent
Sep 12
First Quarter
Sep 19
Full
Sep 26
Last Quarter
Oct 4
New

Hourly Weather History & Observations

Time (EDT) Temp. Heat Index Dew Point Humidity Pressure Visibility Wind Dir Wind Speed Gust Speed Precip Events Conditions
12:53 AM 80.1 °F 83.8 °F 72.0 °F 76% 30.02 in 8.0 mi SSW 19.6 mph - N/A   Clear
1:53 AM 80.1 °F 84.2 °F 73.0 °F 79% 30.02 in 8.0 mi SSW 18.4 mph - N/A   Clear
2:53 AM 79.0 °F - 72.0 °F 79% 30.02 in 8.0 mi SSW 16.1 mph - N/A   Clear
3:53 AM 79.0 °F - 72.0 °F 79% 30.02 in 8.0 mi SSW 18.4 mph - N/A   Clear
4:53 AM 78.1 °F - 71.1 °F 79% 30.03 in 7.0 mi SSW 16.1 mph - N/A   Clear
5:53 AM 78.1 °F - 71.1 °F 79% 30.04 in 7.0 mi SSW 16.1 mph - N/A   Clear
6:53 AM 77.0 °F - 71.1 °F 82% 30.05 in 7.0 mi SSW 16.1 mph - N/A   Clear
7:53 AM 78.1 °F - 70.0 °F 76% 30.05 in 7.0 mi SSW 16.1 mph - N/A   Clear
8:53 AM 80.1 °F 83.6 °F 71.1 °F 74% 30.05 in 7.0 mi SSW 17.3 mph 24.2 mph N/A   Clear
9:53 AM 82.0 °F 86.3 °F 71.1 °F 69% 30.05 in 7.0 mi SSW 13.8 mph 23.0 mph N/A   Clear
10:53 AM 84.9 °F 90.1 °F 71.1 °F 63% 30.05 in 9.0 mi SSW 11.5 mph 19.6 mph N/A   Partly Cloudy
11:53 AM 87.1 °F 92.0 °F 70.0 °F 57% 30.04 in 9.0 mi WSW 12.7 mph - N/A   Clear
12:53 PM 84.0 °F 89.6 °F 72.0 °F 67% 30.03 in 8.0 mi West 16.1 mph 23.0 mph N/A   Clear
1:53 PM 86.0 °F 90.7 °F 70.0 °F 59% 30.02 in 8.0 mi WSW 12.7 mph 18.4 mph N/A   Clear
2:53 PM 87.1 °F 92.0 °F 70.0 °F 57% 29.99 in 9.0 mi West 12.7 mph 23.0 mph N/A   Clear
3:53 PM 87.1 °F 91.3 °F 69.1 °F 55% 29.96 in 9.0 mi WSW 6.9 mph - N/A   Clear
4:53 PM 84.9 °F 89.4 °F 70.0 °F 61% 29.94 in 9.0 mi WSW 11.5 mph 18.4 mph N/A   Clear
5:53 PM 84.0 °F 88.4 °F 70.0 °F 63% 29.96 in 9.0 mi SW 8.1 mph - N/A   Clear
6:53 PM 78.1 °F - 69.1 °F 74% 29.96 in 7.0 mi West 13.8 mph - N/A   Clear
7:53 PM 75.0 °F - 69.1 °F 82% 29.94 in 8.0 mi SSW 11.5 mph - N/A   Clear
8:53 PM 73.9 °F - 69.1 °F 85% 29.96 in 7.0 mi Calm Calm - N/A   Clear
9:53 PM 75.9 °F - 69.1 °F 79% 29.96 in 9.0 mi SSW 12.7 mph - N/A   Clear
10:53 PM 79.0 °F - 68.0 °F 69% 29.97 in 10.0 mi West 23.0 mph 32.2 mph N/A   Partly Cloudy
10:57 PM 78.8 °F - 68.0 °F 69% 29.99 in 10.0 mi West 23.0 mph 32.2 mph N/A Thunderstorm Scattered Clouds
11:09 PM 73.4 °F - 69.8 °F 88% 29.99 in 2.5 mi WNW 18.4 mph 34.5 mph 0.13 in Rain , Thunderstorm Heavy Rain
11:23 PM 71.6 °F - 66.2 °F 83% 30.02 in 3.0 mi WSW 9.2 mph 24.2 mph 0.20 in Rain , Thunderstorm Heavy Thunderstorms and Rain
11:53 PM 71.1 °F - 66.0 °F 84% 30.01 in 7.0 mi WSW 12.7 mph - 0.25 in Rain , Thunderstorm Light Thunderstorms and Rain